Weather History for St. Augustine, FL

Change the Weather History Date:

Wednesday, January 16, 2008

  Actual Average Record
Temperature  
Mean Temperature 53 °F -  
Max Temperature 64 °F 62 °F 81 °F (1974)
Min Temperature 42 °F 44 °F 32 °F (1983)
Degree Days  
Heating Degree Days 12    
Growing Degree Days 3 (Base 50)    
Moisture  
Dew Point 45 °F    
Average Humidity 72    
Maximum Humidity 94    
Minimum Humidity 54    
Precipitation  
Precipitation 0.14 in - - ()
Sea Level Pressure  
Sea Level Pressure 30.15 in    
Wind  
Wind Speed 7 mph (ENE)    
Max Wind Speed 21 mph    
Max Gust Speed 28 mph    
Visibility 10 miles    
Events Rain    
Averages and records for this station are not official NWS values.
T = Trace of Precipitation, MM = Missing Value Source: NWS Daily Summary

Daily Weather History Graph

Daily Weather History Graph

Search for Another Location

Airport:

Trip Planner

Search our weather history database for the weather conditions in past years. The results will help you decide how hot, cold, wet, or windy it might be!

Date:

Astronomy

Jan. 16, 2008 Rise Set
Actual Time 7:21 AM EST 5:48 PM EST
Civil Twilight 6:56 AM EST 6:14 PM EST
Nautical Twilight 6:26 AM EST 6:43 PM EST
Astronomical Twilight 5:57 AM EST 7:12 PM EST
Moon 12:14 PM EST (1/16) 1:13 AM EST (1/16)
Length of Visible Light 11h 18m
Length of Day
10h 26m
First Quarter, 60% of the Moon is Illuminated
Jan 16
First Quarter
Jan 22
Full
Jan 30
Last Quarter
Feb 6
New
Feb 13
First Quarter

Hourly Weather History & Observations

Time (EST) Temp. Windchill Dew Point Humidity Pressure Visibility Wind Dir Wind Speed Gust Speed Precip Events Conditions
12:15 AM 44.6 °F - 35.6 °F 71% 30.19 in 10.0 mi Calm Calm - N/A   Clear
12:35 AM 42.8 °F - 35.6 °F 76% 30.19 in 10.0 mi Calm Calm - N/A   Clear
12:55 AM 42.8 °F 40.1 °F 37.4 °F 81% 30.19 in 10.0 mi NW 4.6 mph - N/A   Clear
1:15 AM 44.6 °F - 35.6 °F 71% 30.19 in 10.0 mi Calm Calm - N/A   Clear
1:35 AM 42.8 °F - 35.6 °F 76% 30.20 in 10.0 mi Calm Calm - N/A   Clear
1:55 AM 42.8 °F 39.3 °F 37.4 °F 81% 30.19 in 10.0 mi NNW 5.8 mph - N/A   Clear
2:15 AM 44.6 °F 43.1 °F 35.6 °F 71% 30.20 in 10.0 mi NW 3.5 mph - N/A   Clear
2:35 AM 44.6 °F 43.1 °F 35.6 °F 71% 30.19 in 10.0 mi NW 3.5 mph - N/A   Clear
2:55 AM 44.6 °F 39.7 °F 37.4 °F 76% 30.17 in 10.0 mi NNW 9.2 mph - N/A   Clear
3:15 AM 46.4 °F 41.9 °F 35.6 °F 66% 30.17 in 10.0 mi NNW 9.2 mph - N/A   Clear
3:35 AM 46.4 °F 42.4 °F 33.8 °F 62% 30.20 in 10.0 mi NW 8.1 mph - N/A   Clear
3:55 AM 46.4 °F 42.9 °F 33.8 °F 62% 30.19 in 10.0 mi NW 6.9 mph - N/A   Clear
4:15 AM 46.4 °F 43.5 °F 33.8 °F 62% 30.19 in 10.0 mi NW 5.8 mph - N/A   Clear
4:35 AM 46.4 °F 42.4 °F 35.6 °F 66% 30.18 in 10.0 mi NNW 8.1 mph - N/A   Clear
4:55 AM 46.4 °F 43.5 °F 37.4 °F 71% 30.18 in 10.0 mi NW 5.8 mph - N/A   Clear
5:15 AM 46.4 °F 43.5 °F 37.4 °F 71% 30.18 in 10.0 mi NNW 5.8 mph - N/A   Clear
5:35 AM 48.2 °F - 37.4 °F 66% 30.20 in 10.0 mi NW 5.8 mph - N/A   Clear
5:55 AM 50.0 °F - 39.2 °F 66% 30.21 in 10.0 mi NE 8.1 mph - N/A   Mostly Cloudy
6:15 AM 53.6 °F - 39.2 °F 58% 30.22 in 10.0 mi NE 12.7 mph - N/A   Mostly Cloudy
6:35 AM 55.4 °F - 39.2 °F 54% 30.22 in 10.0 mi NE 11.5 mph - N/A   Overcast
6:52 AM 55.4 °F - 39.2 °F 54% 30.22 in 10.0 mi NE 11.5 mph 17.3 mph N/A   Overcast
7:50 AM 55.4 °F - 39.2 °F 54% 30.18 in 10.0 mi ENE 17.3 mph 23.0 mph N/A   Overcast
8:50 AM 57.2 °F - 42.8 °F 59% 30.21 in 10.0 mi East 17.3 mph 23.0 mph N/A   Overcast
9:50 AM 55.4 °F - 48.2 °F 77% 30.22 in 10.0 mi ENE 11.5 mph 17.3 mph N/A   Mostly Cloudy
10:50 AM 60.8 °F - 50.0 °F 68% 30.20 in 10.0 mi East 16.1 mph - N/A   Overcast
11:50 AM 62.6 °F - 50.0 °F 63% 30.18 in 10.0 mi East 18.4 mph - N/A   Overcast
12:50 PM 60.8 °F - 51.8 °F 72% 30.13 in 10.0 mi ESE 18.4 mph 23.0 mph N/A   Overcast
1:50 PM 62.6 °F - 51.8 °F 68% 30.09 in 10.0 mi ESE 18.4 mph 24.2 mph N/A   Overcast
2:50 PM 62.6 °F - 51.8 °F 68% 30.06 in 10.0 mi ESE 20.7 mph 27.6 mph N/A   Overcast
3:50 PM 62.6 °F - 51.8 °F 68% 30.06 in 10.0 mi ESE 19.6 mph - N/A   Overcast
5:50 PM 64.4 °F - 53.6 °F 68% 30.08 in 10.0 mi ESE 17.3 mph - N/A   Overcast
6:51 PM 62.6 °F - 55.4 °F 77% 30.08 in 10.0 mi ESE 17.3 mph 21.9 mph N/A   Overcast
7:50 PM 62.6 °F - 57.2 °F 82% 30.09 in 6.0 mi ESE 16.1 mph - N/A Rain Light Rain
8:55 PM 62.6 °F - 57.2 °F 82% 30.08 in 10.0 mi SE 15.0 mph - N/A   Overcast
9:15 PM 62.6 °F - 57.2 °F 82% 30.07 in 10.0 mi SE 16.1 mph - N/A   Mostly Cloudy
9:55 PM 62.6 °F - 59.0 °F 88% 30.06 in 9.0 mi SE 13.8 mph - 0.03 in   Overcast
10:15 PM 62.6 °F - 59.0 °F 88% 30.07 in 7.0 mi SSE 10.4 mph - N/A   Overcast
10:35 PM 62.6 °F - 59.0 °F 88% 30.07 in 9.0 mi SSE 11.5 mph - 0.03 in   Mostly Cloudy
10:55 PM 62.6 °F - 59.0 °F 88% 30.05 in 9.0 mi SE 11.5 mph 16.1 mph 0.03 in   Overcast
11:15 PM 62.6 °F - 60.8 °F 94% 30.04 in 8.0 mi SE 11.5 mph - N/A   Overcast
11:35 PM 64.4 °F - 60.8 °F 88% 30.05 in 6.0 mi SSE 9.2 mph - 0.04 in   Overcast
11:55 PM 64.4 °F - 60.8 °F 88% 30.03 in 7.0 mi SE 9.2 mph - 0.08 in   Overcast